Home > Weather > Viseu > Past weeks

Flag for Portugal Past Weather in Viseu, Portugal — Yesterday and Last 2 Weeks

Now
74 °F

Mild.


Feels Like: 77 °F
Forecast: 50 / 87 °F
Wind: 7 mph from Northwest

Location: Viseu

Current Time: Aug 28, 2016 at 10:04:24 PM

Latest Report: Aug 28, 2016 at 7:00 PM


Visibility: N/A

Pressure: 30.11 "Hg

Humidity: 51%

Dew Point: 55 °F

Location of ViseuLocation

Past Weather in Viseu — Graph

°F

Viseu Temperature Yesterday

Maximum temperature yesterday: 86 °F (at 2:00 PM)
Minimum temperature yesterday: 65 °F (at 6:00 AM)
Average temperature yesterday: 73 °F

High & Low Weather Summary for the Past Weeks

 TemperatureHumidityPressure
High97 °F (Aug 22, 4:00 PM)100% (Aug 16, 7:00 AM)30.20 "Hg (Aug 16, 7:00 AM)
Low49 °F (Aug 20, 6:00 AM)16% (Aug 22, 4:00 PM)29.83 "Hg (Aug 25, 4:00 PM)
Average71 °F59%30.02 "Hg
* Reported Aug 13 7:00 PM — Aug 28 7:00 PM, Viseu, Weather by CustomWeather, © 2016

Note: Actual official high and low records may vary slightly from our data, if they occured in-between our weather recording intervals... More about our weather records

Advertising

Viseu Weather History for the Previous 24 Hours

Scroll right to see more
 ConditionsComfort  
Time TempWeatherWind HumidityBarometerVisibility
7:00 PM
Sun, Aug 28
74 °FMild.7 mph51%30.11 "HgN/A
6:00 PM78 °FWarm.7 mph46%30.10 "HgN/A
5:00 PM80 °FWarm.7 mph45%30.09 "HgN/A
4:00 PM83 °FWarm.6 mph44%30.09 "HgN/A
3:00 PM84 °FPleasantly warm.6 mph39%30.09 "HgN/A
2:00 PM81 °FWarm.3 mph42%30.10 "HgN/A
1:00 PM81 °FPleasantly warm.5 mph40%30.10 "HgN/A
12:00 PM79 °FWarm.5 mph43%30.12 "HgN/A
11:00 AM74 °FMild.2 mph48%30.14 "HgN/A
10:00 AM70 °FMild.2 mph65%30.13 "HgN/A
9:00 AM65 °FMild.1 mph77%30.15 "HgN/A
8:00 AM64 °FMild.1 mph64%30.13 "HgN/A
7:00 AM62 °FRefreshingly cool.2 mph52%30.12 "HgN/A
6:00 AM60 °FRefreshingly cool.3 mph54%30.11 "HgN/A
5:00 AM62 °FRefreshingly cool.2 mph56%30.10 "HgN/A
4:00 AM60 °FCool.2 mph82%30.11 "HgN/A
3:00 AM58 °FCool.3 mph91%30.12 "HgN/A
2:00 AM60 °FCool.2 mph87%30.12 "HgN/A
1:00 AM63 °FMild.1 mph87%30.11 "HgN/A
12:00 AM65 °FMild.1 mph60%30.11 "HgN/A
11:00 PM
Sat, Aug 27
65 °FMild.2 mph62%30.11 "HgN/A
10:00 PM65 °FMild.5 mph68%30.10 "HgN/A
Weather by CustomWeather, © 2016

See weather overviewHow to use our weather pages